Date String (YYYY-MM-DD hh:mm:ss) UTC,Instrument flags,absolute air pressure of the measurement (hPa),sample flow rate (lpm),inlet stack bypass flow (lpm),air temperature of the measurement (°C),ambient temperature measured by the external sensor (°C),aerosol sample conditioner tube jacket temperature (°C),OPC LED temperature (°C),internal box temperature (°C),relative humidity of the measurement (%),span deviation,mass concentration of particles derived from Lorenz-Mie calculation of OPC scattering (μg/m³),mass concentration of particles derived from Lorenz-Mie calculation of OPC scattering (μg/m³),mass concentration of particles derived from Lorenz-Mie calculation of OPC scattering (μg/m³)
DateTimeUTC,F1_M11,P_M11,Q1_M11,Q2_M11,T1_M11,T2_M11,T3_M11,T4_M11,T5_M11,U1_M11,ZSPAN_M11,X0_M11,X2_M11,X1_M11
2024-01-04 07:00:00,SystemResetWarning,0825.9,5.00,000.00,021.9,020.9,000.0,030.2,023.2,11.8,0000.0,0014.42,0006.63,0005.72
2024-01-04 07:01:00,SystemResetWarning,0825.9,5.00,000.00,021.9,020.9,000.0,030.2,023.2,11.7,0000.0,0013.18,0006.66,0005.73
2024-01-04 07:02:00,SystemResetWarning,0825.9,5.00,000.00,021.8,020.9,000.0,030.2,023.2,11.6,0000.0,0012.00,0006.61,0005.75
2024-01-04 07:03:00,SystemResetWarning,0825.9,4.99,000.00,021.8,020.9,000.0,030.2,023.2,11.6,0000.0,0011.39,0006.62,0005.78
2024-01-04 07:04:00,SystemResetWarning,0826.0,4.99,000.00,021.8,020.9,000.0,030.2,023.2,11.6,0000.0,0011.48,0006.62,0005.81
2024-01-04 07:05:00,SystemResetWarning,0825.9,4.99,000.00,021.8,020.9,000.0,030.2,023.2,11.6,0001.4,0011.47,0006.61,0005.83
2024-01-04 07:06:00,SystemResetWarning,0825.9,4.99,000.00,021.8,020.9,000.0,030.2,023.2,11.7,0002.9,0012.35,0006.63,0005.85
2024-01-04 07:07:00,SystemResetWarning,0825.8,5.00,000.00,021.8,021.0,000.0,030.2,023.2,11.7,0001.9,0013.09,0006.63,0005.83
2024-01-04 07:08:00,SystemResetWarning,0825.9,5.01,000.00,021.8,021.0,000.0,030.2,023.2,11.7,0000.0,0013.14,0006.59,0005.78
2024-01-04 07:09:00,SystemResetWarning,0825.9,5.01,000.00,021.8,021.0,000.0,030.2,023.2,11.8,0000.0,0013.82,0006.58,0005.74
2024-01-04 07:10:00,SystemResetWarning,0825.9,5.01,000.00,021.8,021.0,000.0,030.2,023.2,11.7,0000.0,0014.35,0006.61,0005.76
2024-01-04 07:11:00,SystemResetWarning,0825.9,5.00,000.00,021.8,021.0,000.0,030.2,023.2,11.7,0000.0,0015.08,0006.64,0005.78
2024-01-04 07:12:00,SystemResetWarning,0825.9,5.00,000.00,021.8,021.0,000.0,030.2,023.2,11.7,0000.0,0016.28,0006.68,0005.79
2024-01-04 07:13:00,SystemResetWarning,0826.0,5.01,000.00,021.8,021.0,000.0,030.2,023.2,11.7,0000.0,0016.72,0006.69,0005.77
2024-01-04 07:14:00,SystemResetWarning,0826.0,5.00,000.00,021.8,021.0,000.0,030.2,023.2,11.7,0000.0,0016.21,0006.58,0005.70
2024-01-04 07:15:00,SystemResetWarning,0826.0,5.00,000.00,021.8,021.0,000.0,030.2,023.2,11.7,0000.0,0015.78,0006.42,0005.59
2024-01-04 07:16:00,SystemResetWarning,0826.0,5.00,000.00,021.8,021.0,000.0,030.2,023.1,11.7,0000.0,0015.41,0006.28,0005.47
2024-01-04 07:17:00,SystemResetWarning,0826.0,5.00,000.00,021.8,021.0,000.0,030.2,023.2,11.7,0000.0,0014.54,0006.12,0005.34
2024-01-04 07:18:00,SystemResetWarning,0825.9,5.00,000.00,021.8,021.0,000.0,030.2,023.2,11.7,0000.0,0014.05,0006.02,0005.28
2024-01-04 07:19:00,SystemResetWarning,0825.9,4.99,000.00,021.8,021.0,000.0,030.1,023.2,11.7,0000.0,0014.25,0005.98,0005.26
2024-01-04 07:20:00,SystemResetWarning,0825.9,5.01,000.00,021.8,020.9,000.0,030.1,023.2,11.7,0000.0,0013.53,0005.94,0005.27
2024-01-04 07:21:00,SystemResetWarning,0825.9,5.00,000.00,021.8,020.9,000.0,030.1,023.1,11.7,0000.0,0013.20,0005.92,0005.24
2024-01-04 07:22:00,SystemResetWarning,0825.9,5.01,000.00,021.8,020.9,000.0,030.1,023.1,11.8,0000.0,0013.16,0005.91,0005.22
2024-01-04 07:23:00,SystemResetWarning,0825.9,5.00,000.00,021.8,020.9,000.0,030.1,023.1,11.8,0000.0,0013.70,0005.86,0005.18
2024-01-04 07:24:00,SystemResetWarning,0825.9,5.00,000.00,021.8,020.9,000.0,030.1,023.1,11.9,0000.0,0013.44,0005.78,0005.12
2024-01-04 07:25:00,SystemResetWarning,0825.9,5.00,000.00,021.8,020.9,000.0,030.1,023.1,11.8,0000.0,0013.42,0005.78,0005.10
2024-01-04 07:26:00,SystemResetWarning,0825.9,5.00,000.00,021.8,020.9,000.0,030.1,023.1,11.8,0000.0,0013.76,0005.83,0005.12
2024-01-04 07:27:00,SystemResetWarning,0825.9,5.00,000.00,021.8,020.9,000.0,030.1,023.1,11.8,0000.0,0014.44,0005.87,0005.15
2024-01-04 07:28:00,SystemResetWarning,0825.9,5.00,000.00,021.8,020.9,000.0,030.1,023.1,11.7,0000.0,0014.60,0005.93,0005.18
2024-01-04 07:29:00,SystemResetWarning,0825.9,5.00,000.00,021.7,020.9,000.0,030.1,023.1,11.7,0000.0,0014.68,0005.95,0005.21
2024-01-04 07:30:00,SystemResetWarning,0826.0,5.00,000.00,021.7,020.9,000.0,030.1,023.1,11.7,0000.0,0014.01,0005.96,0005.21
2024-01-04 07:31:00,SystemResetWarning,0825.9,5.01,000.00,021.7,020.9,000.0,030.1,023.1,11.7,0000.0,0014.62,0005.98,0005.22
2024-01-04 07:32:00,SystemResetWarning,0825.9,5.00,000.00,021.7,020.9,000.0,030.1,023.1,11.7,0000.0,0015.25,0005.96,0005.21
2024-01-04 07:33:00,SystemResetWarning,0825.9,5.00,000.00,021.7,020.9,000.0,030.1,023.1,11.7,0000.0,0015.09,0005.91,0005.18
2024-01-04 07:34:00,SystemResetWarning,0825.8,5.00,000.00,021.7,020.9,000.0,030.1,023.1,11.7,0000.0,0013.87,0005.89,0005.18
2024-01-04 07:35:00,SystemResetWarning,0825.8,5.00,000.00,021.7,020.9,000.0,030.1,023.1,11.7,0000.0,0013.48,0005.90,0005.20
2024-01-04 07:36:00,SystemResetWarning,0825.8,4.99,000.00,021.7,020.9,000.0,030.1,023.1,11.8,0000.0,0013.78,0005.95,0005.25
2024-01-04 07:37:00,SystemResetWarning,0825.8,5.00,000.00,021.7,020.9,000.0,030.1,023.1,11.8,0000.0,0014.05,0006.02,0005.32
2024-01-04 07:38:00,SystemResetWarning,0825.7,5.00,000.00,021.7,020.9,000.0,030.1,023.1,11.8,0000.0,0014.27,0006.13,0005.39
2024-01-04 07:39:00,SystemResetWarning,0825.6,5.00,000.00,021.7,020.9,000.0,030.1,023.1,11.8,0000.0,0014.76,0006.18,0005.43
2024-01-04 07:40:00,SystemResetWarning,0825.6,5.01,000.00,021.7,020.9,000.0,030.1,023.1,11.8,0000.0,0014.43,0006.19,0005.46
2024-01-04 07:41:00,SystemResetWarning,0825.6,5.01,000.00,021.7,020.9,000.0,030.1,023.1,11.8,0000.0,0015.11,0006.20,0005.49
2024-01-04 07:42:00,SystemResetWarning,0825.5,5.01,000.00,021.7,020.9,000.0,030.1,023.1,11.9,0000.0,0014.91,0006.29,0005.53
2024-01-04 07:43:00,SystemResetWarning,0825.5,4.99,000.00,021.7,020.9,000.0,030.1,023.1,11.9,0000.9,0014.20,0006.38,0005.58
2024-01-04 07:44:00,SystemResetWarning,0825.5,4.99,000.00,021.7,020.9,000.0,030.1,023.1,11.9,0000.0,0013.91,0006.46,0005.63
2024-01-04 07:45:00,SystemResetWarning,0825.5,5.00,000.00,021.7,020.9,000.0,030.1,023.1,11.9,0000.0,0014.28,0006.48,0005.67
2024-01-04 07:46:00,SystemResetWarning,0825.5,4.99,000.00,021.7,020.9,000.0,030.1,023.1,11.9,0003.2,0013.76,0006.53,0005.72
2024-01-04 07:47:00,SystemResetWarning,0825.5,5.00,000.00,021.7,020.9,000.0,030.0,023.1,11.9,0004.0,0013.58,0006.55,0005.74
2024-01-04 07:48:00,SystemResetWarning,0825.5,4.99,000.00,021.7,020.9,000.0,030.0,023.1,11.9,0003.0,0013.11,0006.52,0005.74
2024-01-04 07:49:00,SystemResetWarning,0825.5,4.99,000.00,021.7,020.9,000.0,030.0,023.1,11.9,0002.0,0012.91,0006.48,0005.74
2024-01-04 07:50:00,SystemResetWarning,0825.5,5.00,000.00,021.7,020.9,000.0,030.0,023.1,11.9,0001.6,0012.51,0006.51,0005.78
2024-01-04 07:51:00,SystemResetWarning,0825.6,5.00,000.00,021.7,020.9,000.0,030.0,023.0,11.9,0002.7,0012.79,0006.59,0005.85
2024-01-04 07:52:00,SystemResetWarning,0825.7,5.00,000.00,021.6,020.9,000.0,030.0,023.0,12.0,0003.1,0012.38,0006.70,0005.91
2024-01-04 07:53:00,SystemResetWarning,0825.7,5.00,000.00,021.6,020.9,000.0,030.0,023.0,12.0,0002.7,0012.67,0006.70,0005.96
2024-01-04 07:54:00,SystemResetWarning,0825.7,5.01,000.00,021.6,020.9,000.0,030.0,023.0,12.0,0002.2,0012.58,0006.72,0006.01
2024-01-04 07:55:00,SystemResetWarning,0825.7,5.01,000.00,021.6,020.9,000.0,030.0,023.0,12.0,0002.5,0013.20,0006.74,0006.08
2024-01-04 07:56:00,SystemResetWarning,0825.7,5.00,000.00,021.6,020.8,000.0,030.0,023.0,12.0,0002.7,0013.19,0006.82,0006.15
2024-01-04 07:57:00,SystemResetWarning,0825.6,5.00,000.00,021.6,020.9,000.0,030.0,023.0,12.0,0002.8,0013.39,0006.88,0006.21
2024-01-04 07:58:00,SystemResetWarning,0825.6,5.00,000.00,021.6,020.9,000.0,030.0,023.0,12.0,0003.2,0014.06,0006.96,0006.28
2024-01-04 07:59:00,SystemResetWarning,0825.6,5.00,000.00,021.6,020.9,000.0,030.0,023.0,12.0,0003.1,0014.24,0007.07,0006.36
